Flag for Canada Weather past 2 weeks in Gander, Newfoundland and Labrador, Canada

Now
46 °F

Partly sunny.


Feels Like: 45 °F
Forecast: 39 / 48 °F
Wind: 3 mph from Northeast

Location: Gander Int. Airport

Current Time: Oct 22, 2014 at 12:28:15 PM

Latest Report: Oct 22, 2014 at 11:30 AM


Visibility: 20 mi

Pressure: 30.46 "Hg

Humidity: 62%

Dew point: 34 °F

Location of GanderLocation

Historic Weather in Gander — Graph

°F

Gander temperature yesterday

Maximum temperature yesterday: 48 °F (at 1:30 PM)
Minimum temperature yesterday: 41 °F (at 12:30 AM)
Average temperature yesterday: 45 °F

Past Weeks' High & Low Weather Summary

 TemperatureHumidityPressure
High66 °F (Oct 19, 2:30 PM)100% (Oct 8, 7:30 AM)30.45 "Hg (Oct 8, 7:30 AM)
Low37 °F (Oct 12, 11:30 PM)48% (Oct 7, 2:30 PM)29.28 "Hg (Oct 20, 12:30 PM)
Average50 °F84%29.94 "Hg
* Reported Oct 7 10:30 AM — Oct 22 10:30 AM, Gander, Weather by CustomWeather, © 2014

Note: Actual official high and low records may vary slightly from our data, if they occured in-between our weather recording intervals... More about our weather records

Advertising

Gander weather history for previous 24 hours

 ConditionsComfort  
Time TempWeatherWind HumidityBarometerVisibility
10:30 AM
Oct 22
45 °FPartly sunny.2 mph71%30.45 "Hg20 mi
9:30 AM41 °FScattered clouds.6 mph87%30.44 "Hg20 mi
8:30 AM39 °FPartly sunny.5 mph93%30.42 "Hg20 mi
7:30 AM39 °FPassing clouds.6 mph93%30.41 "Hg20 mi
6:30 AM39 °FPassing clouds.5 mph93%30.37 "Hg20 mi
5:30 AM41 °FPassing clouds.5 mph87%30.37 "Hg20 mi
4:30 AM41 °FMostly cloudy.6 mph87%30.35 "Hg20 mi
3:30 AM41 °FOvercast.8 mph87%30.33 "Hg20 mi
2:30 AM43 °FPassing clouds.10 mph81%30.31 "Hg20 mi
1:30 AM43 °FPassing clouds.9 mph76%30.30 "Hg20 mi
12:30 AM43 °FPassing clouds.10 mph76%30.28 "Hg20 mi
11:30 PM
Oct 21
43 °FPassing clouds.13 mph76%30.27 "Hg20 mi
10:30 PM43 °FPassing clouds.12 mph76%30.25 "Hg20 mi
9:30 PM45 °FPassing clouds.13 mph76%30.22 "Hg20 mi
8:30 PM46 °FPassing clouds.10 mph71%30.18 "Hg20 mi
7:30 PM46 °FPassing clouds.9 mph76%30.16 "Hg20 mi
6:30 PM48 °FPartly sunny.10 mph66%30.12 "Hg20 mi
5:30 PM48 °FPartly sunny.12 mph66%30.09 "Hg20 mi
4:30 PM48 °FPartly sunny.9 mph66%30.07 "Hg20 mi
3:30 PM48 °FOvercast.14 mph66%30.04 "Hg20 mi
2:30 PM46 °FOvercast.16 mph71%30.02 "Hg20 mi
1:30 PM48 °FOvercast.14 mph71%30.00 "Hg20 mi
12:30 PM46 °FPartly sunny.15 mph71%29.98 "Hg20 mi
Weather by CustomWeather, © 2014

See weather overviewHow to use our weather pages